This is the latest recevied weather packets stored in our database for station/object IZ2XCK-13. If no packets are shown the sender has not sent any weather packets the latest 10 day(s).
| Time | Temp. | Humidity | Pressure | Rain* | Wind** | Luminosity | Snow |
|---|---|---|---|---|---|---|---|
| 1778087151 | 12.78° C | 93% | 1010.2 hPa | - | - | - | - |
| 1778085951 | 13.89° C | 83% | 1009.4 hPa | - | - | - | - |
| 1778084751 | 13.89° C | 82% | 1009.2 hPa | - | - | - | - |
| 1778083550 | 13.89° C | 84% | 1009.1 hPa | - | - | - | - |
| 1778082350 | 14.44° C | 80% | 1009.4 hPa | - | - | - | - |
| 1778081150 | 14.44° C | 77% | 1009.4 hPa | - | - | - | - |
| 1778079949 | 13.89° C | 86% | 1009.9 hPa | - | - | - | - |
| 1778078749 | 16.67° C | 74% | 1010.1 hPa | - | - | - | - |
| 1778077549 | 13.89° C | 90% | 1010.5 hPa | - | - | - | - |
| 1778076348 | 13.89° C | 90% | 1010.6 hPa | - | - | - | - |
| 1778075148 | 14.44° C | 84% | 1010.7 hPa | - | - | - | - |
| 1778073948 | 12.78° C | 96% | 1010.8 hPa | - | - | - | - |
| 1778072748 | 14.44° C | 91% | 1011.2 hPa | - | - | - | - |
| 1778071547 | 11.67° C | 99% | 1011.5 hPa | - | - | - | - |
| 1778070347 | 11.67° C | 98% | 1011.7 hPa | - | - | - | - |
| 1778069147 | 11.67° C | 99% | 1011.8 hPa | - | - | - | - |
| 1778067946 | 12.22° C | 94% | 1011.9 hPa | - | - | - | - |
| 1778066746 | 11.67° C | 99% | 1011.7 hPa | - | - | - | - |
| 1778065546 | 12.78° C | 78% | 1011.3 hPa | - | - | - | - |
| 1778064345 | 12.78° C | 83% | 1011.6 hPa | - | - | - | - |
| 1778063145 | 11.67° C | 99% | 1011.5 hPa | - | - | - | - |
| 1778061945 | 12.22° C | 99% | 1010.6 hPa | - | - | - | - |
| 1778060744 | 12.22° C | 99% | 1010.7 hPa | - | - | - | - |
| 1778059544 | 12.78° C | 94% | 1011.3 hPa | - | - | - | - |
| 1778058344 | 11.67° C | 89% | 1011.3 hPa | - | - | - | - |
* Rain since midnight (hover to see other rain measurements)
** Current wind speed in m/s (hover to see current wind gust speed)